SCP
0 0 0 0 0 0 0 0 0 0 0 0 0 0 0 0 0 0 0 0 -0 -0 -0 0 -0 0 0 0 0 0 0 0 0 0 0 0 0 0 0 0 0 0 0
0 0 0 0 0 0 0 0 0 0 0 0 0 0 0 0 0 0 0 0 0 -0 -0 0 -0 0 0 0 0 0 0 0 0 0 0 0 0 0 0 0 0 0 0
0 0 0 0 0 0 0 0 0 0 0 0 0 0 0 -0 -0 0 0 0 0 0 -0 0 -0 0 0 0 0 0 0 0 0 0 0 0 0 0 0 0 0 0 0
0 0 0 0 0 0 0 0 0 0 0 0 0 0 0 -0 -0 0 -0 0 -0 0 0 0 -0 0 0 0 0 0 0 0 0 0 0 0 0 0 0 0 0 0 0
0 0 0 0 0 0 0 0 0 0 0 0 0 0 0 0 -0 0 -0 -0 -0 -0 0 0 -0 0 0 0 0 0 0 0 0 0 0 0 0 0 0 0 0 0 0
0 0 0 0 0 0 0 0 0 0 0 0 0 0 0 0 -0 0 0 -0 -0 -0 0 0 -0 0 0 0 0 0 0 0 0 0 0 0 0 0 0 0 0 0 0
0 0 0 0 0 0 0 0 0 0 0 0 0 0 0 0 0 0 0 0 -0 -0 0 0 0 -0 0 0 0 0 0 0 0 0 0 0 0 0 0 0 0 0 0
0 0 0 0 0 0 0 0 0 0 0 0 0 0 0 0 0 0 0 0 0 -0 0 0 0 -0 0 0 0 0 0 0 0 0 0 0 0 0 0 0 0 0 0
0 0 0 0 0 0 0 0 -0 -0 0 0 0 0 0 0 0 0 0 0 0 -0 -0 0 0 0 0 0 0 0 0 0 0 0 0 0 0 0 0 0 0 0 0
0 0 0 0 0 0 0 0 -0 -0 0 0 0 0 0 0 0 0 0 0 0 -0 -0 0 0 0 0 0 0 0 0 0 0 0 0 0 0 0 0 0 0 0 0
0 0 0 0 0 0 0 0 -0 -0 0 0 0 0 0 0 0 0 0 0 0 0 -0 0 0 0 0 0 0 0 0 0 0 0 0 0 0 0 0 0 0 0 0
0 0 0 0 0 0 0 0 -0 -0 0 0 0 0 -0 0 0 0 0 0 0 0 0 0 0 0 0 0 0 0 0 0 0 0 0 0 0 0 0 0 0 0 0
0 0 0 0 0 0 -0 -0 -0 -0 0 0 0 -0 -0 0 0 0 0 0 0 0 0 0 0 0 0 0 0 0 0 0 0 0 0 0 0 0 0 0 0 0 0
0 0 0 0 0 0 -0 -0 -0 -0 0 0 -0 0 0 -0 0 0 0 0 0 0 0 0 0 0 0 0 0 0 0 0 0 0 0 0 0 0 0 0 0 0 0
0 0 0 0 0 0 -0 -0 -0 -0 -0 -0 -0 -0 0 -0 -0 0 0 0 0 0 0 0 0 0 0 0 0 0 0 0 0 0 0 0 0 0 0 0 0 0 0
0 0 0 0 0 -0 -0 -0 -0 0 0 -0 -0 -0 0 -0 0 0 0 0 0 0 0 0 0 0 0 0 0 0 0 0 0 0 0 0 0 0 0 0 0 0 0
0 0 0 0 0 -0 -0 -0 -0 -0 0 0 -0 -0 -0 -0 -0 0 0 0 0 0 0 0 0 0 0 0 0 0 0 0 0 0 0 0 0 0 0 0 0 0 0
0 0 0 0 0 -0 -0 -0 -0 -0 -0 0 -0 -0 -0 -0 -0 0 0 0 0 0 0 0 0 0 0 0 0 0 0 0 0 0 0 0 0 0 0 0 0 0 0
0 0 0 0 -0 -0 -0 -0 -0 -0 -0 -0 0 -0 -0 -0 -0 -0 -0 0 0 0 0 0 0 0 0 0 0 0 0 0 0 0 0 0 0 0 0 0 0 0 0
0 0 0 0 -0 -0 -0 -0 -0 -0 -0 -0 -0 -0 -0 0 0 0 0 0 0 0 0 0 0 0 0 0 0 0 0 0 0 0 0 0 0 0 0 0 0 0 0
0 0 0 0 -0 -0 -0 -0 -0 -0 -0 -0 -0 -0 -0 0 0 0 0 0 0 0 0 0 0 0 0 0 0 0 0 0 0 0 0 0 0 0 0 0 0 0 0
0 0 0 0 0 -0 -0 -0 -0 -0 -0 -0 -0 -0 -0 0 0 0 0 0 0 0 0 0 0 0 0 0 0 0 0 0 0 0 0 0 0 0 0 0 0 0 0
0 0 0 0 0 -0 -0 -0 -0 0 -0 -0 0 -0 -0 -0 0 0 0 0 0 0 0 0 0 0 0 0 0 0 0 0 0 0 0 0 0 0 0 0 0 0 0
0 0 0 0 0 0 -0 -0 -0 0 -0 0 0 -0 -0 -0 0 0 0 0 0 0 0 0 0 0 0 0 0 0 0 0 0 0 0 0 0 0 0 0 0 0 0
0 0 0 0 0 0 0 -0 -0 0 0 -0 -0 0 -0 -0 -0 0 0 0 0 0 0 0 0 0 0 0 0 0 0 0 0 0 0 0 0 0 0 0 0 0 0
0 0 0 0 0 0 0 0 0 0 0 0 -0 -0 -0 -0 -0 -0 0 0 0 0 0 0 0 0 0 0 0 0 0 0 0 0 0 0 0 0 0 0 0 0 0
Wind_Speed_500mb
84 90 97 102 101 101 104 105 98 93 90 92 89 81 75 78 72 76 67 51 72 68 64 57 70 107 106 67 114 122 121 106 105 100 122 117 110 112 109 104 99 96 93
86 95 100 105 105 102 105 101 97 94 86 89 86 78 83 79 69 74 72 53 63 70 55 69 59 91 63 83 116 124 124 112 109 118 118 124 123 116 119 113 100 98 97
88 94 100 103 104 103 105 103 102 93 90 87 76 78 77 73 67 71 78 64 41 54 55 62 59 84 70 68 98 117 111 107 116 119 124 128 132 129 127 113 109 106 108
90 96 100 103 103 104 104 105 103 92 87 80 75 74 74 72 66 64 76 76 57 48 54 64 52 65 69 60 117 113 112 111 116 120 117 128 130 138 130 122 120 117 114
92 96 100 100 101 105 106 104 101 90 83 77 75 71 71 73 66 60 69 79 74 57 53 68 55 55 59 66 114 116 114 124 128 117 106 116 117 131 131 135 131 126 123
92 96 99 101 104 106 105 103 94 84 78 72 68 67 67 69 65 63 59 67 76 70 60 62 67 59 63 38 124 115 125 134 133 125 120 130 131 142 133 137 134 133 109
91 95 99 103 105 106 103 98 88 82 77 71 69 64 67 68 66 60 63 64 76 83 78 63 74 54 78 32 117 112 112 131 133 127 126 136 143 157 153 148 146 140 117
91 95 97 100 103 103 101 94 88 85 82 77 74 68 70 67 65 59 60 61 72 90 91 84 80 63 64 53 91 124 126 130 128 125 125 133 125 151 162 152 150 137 106
88 93 94 96 100 99 99 96 88 85 81 77 69 69 72 67 58 57 55 63 72 78 87 97 87 80 65 54 55 127 136 136 128 128 116 122 118 140 150 142 136 139 112
87 90 91 91 92 96 97 92 85 81 78 70 63 59 65 67 56 52 52 56 69 72 87 81 81 81 61 52 56 131 140 138 136 122 124 123 126 130 139 148 150 135 112
83 86 86 86 91 93 92 88 83 79 72 68 61 61 58 65 62 42 51 59 64 63 69 63 79 77 70 64 70 129 129 135 134 130 121 121 123 129 129 148 145 149 150
80 81 82 84 89 91 92 88 81 72 72 70 69 68 64 56 52 52 36 50 58 63 61 67 78 74 65 71 79 114 139 137 134 131 121 116 119 116 116 125 134 132 130
76 78 80 83 86 89 91 85 79 71 69 74 72 71 77 68 58 38 36 47 57 58 60 69 75 67 56 73 75 116 140 136 132 134 134 129 126 118 113 106 113 127 113
72 74 77 81 85 88 88 80 70 67 74 73 72 77 83 81 66 49 46 49 37 54 64 73 70 58 56 66 83 120 132 134 141 134 131 129 126 123 119 110 119 118 122
68 70 73 76 81 86 86 77 68 63 60 62 69 71 78 89 75 70 71 60 41 33 44 50 62 64 65 70 96 119 126 124 126 125 129 131 132 132 132 128 123 124 123
63 66 70 73 76 81 87 93 79 61 57 51 51 63 71 61 62 72 76 58 37 45 51 56 64 74 68 78 96 104 115 125 129 129 129 133 137 137 134 128 121 125 131
58 62 65 67 71 77 82 89 101 100 84 70 64 69 64 58 58 63 62 51 37 36 54 56 64 68 74 85 102 108 117 123 124 119 121 131 132 134 129 124 131 130 126
50 56 60 62 65 70 75 80 85 95 106 106 96 80 70 62 59 62 26 13 30 35 46 47 55 69 77 88 96 103 108 112 117 116 117 123 127 136 135 130 132 133 129
48 52 55 56 58 63 69 75 81 88 96 101 108 110 94 77 67 68 62 56 46 37 29 17 30 58 66 76 95 100 104 109 115 113 116 118 124 134 141 140 133 131 129
41 45 49 53 57 60 66 73 79 84 89 96 98 100 108 107 105 97 88 78 68 59 52 41 26 25 49 65 74 92 100 102 104 112 116 122 123 131 140 141 131 127 128
37 40 44 47 53 59 62 67 73 78 83 86 90 83 90 107 105 103 100 96 88 81 76 63 55 36 21 41 67 74 79 93 99 107 114 123 127 129 130 132 125 121 127
32 35 39 43 47 52 57 62 66 71 77 81 83 87 89 97 100 100 99 96 96 92 87 81 74 67 50 27 28 52 66 71 82 94 106 112 118 125 125 134 125 124 128
26 30 33 38 42 45 50 56 62 66 70 73 78 83 87 89 91 92 94 94 95 93 93 93 85 79 74 61 42 26 33 47 63 76 83 97 106 111 112 114 121 118 114
22 26 31 34 37 42 47 51 56 60 64 67 71 74 77 79 82 84 86 89 89 89 91 94 94 87 76 74 64 51 36 21 23 44 61 75 82 88 91 92 96 98 96
19 23 27 31 34 38 42 46 50 54 58 62 64 65 67 70 73 75 77 81 84 86 85 87 92 88 86 77 73 63 49 35 28 22 26 38 50 55 62 67 66 67 70
16 20 24 26 29 34 38 42 46 49 52 55 58 59 60 62 63 66 69 71 72 76 80 82 83 87 82 80 78 73 67 54 41 31 27 25 26 28 29 32 39 46 50
Wind_Direction_500mb
331 329 328 326 327 325 324 324 320 314 307 308 304 298 288 277 267 255 259 269 265 271 279 257 262 260 259 255 185 188 187 183 180 185 196 193 195 186 184 186 185 188 194
331 329 328 327 326 325 327 325 319 315 309 305 300 293 287 282 274 255 255 261 261 263 273 255 254 249 298 204 185 186 187 185 180 182 188 197 201 200 189 187 190 195 194
330 329 327 327 326 328 329 325 322 317 312 311 299 295 291 284 275 257 253 252 254 275 268 264 261 251 260 209 188 186 187 185 193 197 186 187 190 189 187 189 189 192 191
330 329 327 328 330 330 330 328 322 319 315 313 304 297 291 284 275 265 254 251 254 256 268 267 262 253 257 296 196 189 187 182 189 194 186 190 195 192 188 185 189 192 190
330 329 330 331 332 333 331 329 325 323 318 312 304 301 294 285 274 263 258 252 252 252 267 270 265 252 254 267 191 189 183 186 187 187 183 183 186 185 182 188 190 194 194
330 332 333 334 335 333 333 330 326 327 321 313 308 304 299 291 282 265 263 262 251 249 252 266 260 243 240 264 202 199 200 193 189 189 189 187 189 192 185 188 192 193 188
332 334 336 338 336 335 335 332 331 331 323 317 312 307 301 297 292 276 266 260 253 247 250 254 263 251 244 281 204 207 210 212 211 203 195 192 190 190 190 191 194 193 187
334 337 339 338 337 336 337 334 338 333 325 317 315 314 306 297 292 276 263 256 258 248 245 249 257 263 243 242 204 205 200 205 209 212 212 201 206 194 191 194 195 194 195
337 339 341 341 339 339 341 340 340 329 326 319 316 315 311 304 292 280 258 244 249 252 245 249 251 257 236 234 216 189 199 204 210 212 214 209 204 201 194 194 194 193 189
339 341 344 342 342 344 346 342 340 332 325 319 315 322 320 313 298 280 261 248 249 254 243 241 247 249 250 220 213 199 195 196 201 193 205 205 204 201 205 201 200 198 191
340 343 344 346 348 350 346 347 341 333 328 328 322 317 325 326 323 282 257 246 249 251 251 238 247 245 251 219 207 201 206 200 200 200 203 200 202 202 204 208 209 209 206
343 344 347 352 355 353 351 351 343 340 333 331 331 326 321 322 329 317 273 240 240 246 241 244 245 244 240 218 212 202 201 204 202 198 198 198 199 203 204 211 210 210 209
345 347 352 357 359 360 358 353 343 343 336 336 331 326 324 326 319 334 300 268 245 244 245 248 250 246 237 229 219 203 202 206 198 196 200 204 203 201 202 203 204 214 214
347 351 356 359 2 4 5 0 346 343 343 336 334 331 331 323 318 325 321 304 285 245 246 251 253 248 229 233 212 199 201 202 204 202 203 203 200 200 197 200 200 207 210
352 356 359 3 5 7 8 8 353 348 345 338 337 337 329 321 317 317 311 300 285 274 267 266 251 240 237 230 200 194 202 206 202 207 200 199 200 200 202 202 207 208 212
355 359 4 5 8 10 10 11 20 4 358 354 347 346 333 323 321 318 313 294 264 249 249 254 244 238 227 209 194 192 193 198 201 202 201 204 204 204 204 206 207 209 211
359 3 7 8 11 13 15 16 12 21 25 17 5 0 355 347 339 335 316 300 280 235 246 244 236 224 210 198 197 193 195 200 204 201 200 205 208 207 206 205 206 210 211
4 6 10 11 13 17 18 20 21 20 17 19 27 9 9 9 8 6 359 258 209 220 223 222 219 214 206 200 197 195 196 197 202 200 201 205 207 207 202 207 207 210 212
7 9 12 14 16 19 21 23 26 27 26 25 24 24 31 33 30 42 61 64 64 74 81 109 172 185 190 195 206 204 207 206 205 201 203 206 206 206 204 208 214 214 215
9 10 12 15 18 20 23 25 26 29 31 30 29 19 27 38 42 46 49 51 54 58 59 59 67 141 178 188 192 203 204 206 210 208 208 211 214 213 208 210 215 214 214
11 11 14 17 21 23 24 27 27 28 30 34 34 30 32 40 42 44 46 47 48 52 53 51 58 66 131 176 190 194 204 213 216 217 213 210 213 214 214 218 224 223 223
12 13 15 19 22 25 28 28 29 29 29 30 35 38 40 42 43 44 47 48 50 52 52 51 56 60 62 87 159 187 195 199 204 211 213 216 217 218 218 217 217 221 222
16 16 18 21 22 25 27 29 30 30 30 29 31 34 38 41 42 43 45 48 51 53 54 53 53 57 62 63 73 116 167 190 202 208 211 213 214 214 212 211 215 216 215
17 19 21 20 21 24 26 27 30 31 31 32 31 33 35 37 40 43 43 46 49 50 53 54 52 52 56 59 59 67 78 108 175 201 210 214 213 213 213 214 217 220 223
17 21 22 20 19 22 24 26 27 28 30 30 32 34 36 37 38 40 43 44 46 47 50 53 54 51 53 56 59 59 63 73 89 122 167 193 203 207 210 212 215 219 221
22 19 22 22 20 21 23 24 24 25 26 28 30 32 33 38 41 40 40 43 44 47 47 48 52 52 50 52 55 59 59 61 65 77 98 121 142 155 171 187 198 205 207
Wind_Speed_850mb
84 90 97 102 101 101 104 105 98 93 90 92 89 81 75 78 72 76 67 51 72 68 64 57 70 107 106 67 114 122 121 106 105 100 122 117 110 112 109 104 99 96 93
86 95 100 105 105 102 105 101 97 94 86 89 86 78 83 79 69 74 72 53 63 70 55 69 59 91 63 83 116 124 124 112 109 118 118 124 123 116 119 113 100 98 97
88 94 100 103 104 103 105 103 102 93 90 87 76 78 77 73 67 71 78 64 41 54 55 62 59 84 70 68 98 117 111 107 116 119 124 128 132 129 127 113 109 106 108
90 96 100 103 103 104 104 105 103 92 87 80 75 74 74 72 66 64 76 76 57 48 54 64 52 65 69 60 117 113 112 111 116 120 117 128 130 138 130 122 120 117 114
92 96 100 100 101 105 106 104 101 90 83 77 75 71 71 73 66 60 69 79 74 57 53 68 55 55 59 66 114 116 114 124 128 117 106 116 117 131 131 135 131 126 123
92 96 99 101 104 106 105 103 94 84 78 72 68 67 67 69 65 63 59 67 76 70 60 62 67 59 63 38 124 115 125 134 133 125 120 130 131 142 133 137 134 133 109
91 95 99 103 105 106 103 98 88 82 77 71 69 64 67 68 66 60 63 64 76 83 78 63 74 54 78 32 117 112 112 131 133 127 126 136 143 157 153 148 146 140 117
91 95 97 100 103 103 101 94 88 85 82 77 74 68 70 67 65 59 60 61 72 90 91 84 80 63 64 53 91 124 126 130 128 125 125 133 125 151 162 152 150 137 106
88 93 94 96 100 99 99 96 88 85 81 77 69 69 72 67 58 57 55 63 72 78 87 97 87 80 65 54 55 127 136 136 128 128 116 122 118 140 150 142 136 139 112
87 90 91 91 92 96 97 92 85 81 78 70 63 59 65 67 56 52 52 56 69 72 87 81 81 81 61 52 56 131 140 138 136 122 124 123 126 130 139 148 150 135 112
83 86 86 86 91 93 92 88 83 79 72 68 61 61 58 65 62 42 51 59 64 63 69 63 79 77 70 64 70 129 129 135 134 130 121 121 123 129 129 148 145 149 150
80 81 82 84 89 91 92 88 81 72 72 70 69 68 64 56 52 52 36 50 58 63 61 67 78 74 65 71 79 114 139 137 134 131 121 116 119 116 116 125 134 132 130
76 78 80 83 86 89 91 85 79 71 69 74 72 71 77 68 58 38 36 47 57 58 60 69 75 67 56 73 75 116 140 136 132 134 134 129 126 118 113 106 113 127 113
72 74 77 81 85 88 88 80 70 67 74 73 72 77 83 81 66 49 46 49 37 54 64 73 70 58 56 66 83 120 132 134 141 134 131 129 126 123 119 110 119 118 122
68 70 73 76 81 86 86 77 68 63 60 62 69 71 78 89 75 70 71 60 41 33 44 50 62 64 65 70 96 119 126 124 126 125 129 131 132 132 132 128 123 124 123
63 66 70 73 76 81 87 93 79 61 57 51 51 63 71 61 62 72 76 58 37 45 51 56 64 74 68 78 96 104 115 125 129 129 129 133 137 137 134 128 121 125 131
58 62 65 67 71 77 82 89 101 100 84 70 64 69 64 58 58 63 62 51 37 36 54 56 64 68 74 85 102 108 117 123 124 119 121 131 132 134 129 124 131 130 126
50 56 60 62 65 70 75 80 85 95 106 106 96 80 70 62 59 62 26 13 30 35 46 47 55 69 77 88 96 103 108 112 117 116 117 123 127 136 135 130 132 133 129
48 52 55 56 58 63 69 75 81 88 96 101 108 110 94 77 67 68 62 56 46 37 29 17 30 58 66 76 95 100 104 109 115 113 116 118 124 134 141 140 133 131 129
41 45 49 53 57 60 66 73 79 84 89 96 98 100 108 107 105 97 88 78 68 59 52 41 26 25 49 65 74 92 100 102 104 112 116 122 123 131 140 141 131 127 128
37 40 44 47 53 59 62 67 73 78 83 86 90 83 90 107 105 103 100 96 88 81 76 63 55 36 21 41 67 74 79 93 99 107 114 123 127 129 130 132 125 121 127
32 35 39 43 47 52 57 62 66 71 77 81 83 87 89 97 100 100 99 96 96 92 87 81 74 67 50 27 28 52 66 71 82 94 106 112 118 125 125 134 125 124 128
26 30 33 38 42 45 50 56 62 66 70 73 78 83 87 89 91 92 94 94 95 93 93 93 85 79 74 61 42 26 33 47 63 76 83 97 106 111 112 114 121 118 114
22 26 31 34 37 42 47 51 56 60 64 67 71 74 77 79 82 84 86 89 89 89 91 94 94 87 76 74 64 51 36 21 23 44 61 75 82 88 91 92 96 98 96
19 23 27 31 34 38 42 46 50 54 58 62 64 65 67 70 73 75 77 81 84 86 85 87 92 88 86 77 73 63 49 35 28 22 26 38 50 55 62 67 66 67 70
16 20 24 26 29 34 38 42 46 49 52 55 58 59 60 62 63 66 69 71 72 76 80 82 83 87 82 80 78 73 67 54 41 31 27 25 26 28 29 32 39 46 50
Wind_Direction_850mb
331 329 328 326 327 325 324 324 320 314 307 308 304 298 288 277 267 255 259 269 265 271 279 257 262 260 259 255 185 188 187 183 180 185 196 193 195 186 184 186 185 188 194
331 329 328 327 326 325 327 325 319 315 309 305 300 293 287 282 274 255 255 261 261 263 273 255 254 249 298 204 185 186 187 185 180 182 188 197 201 200 189 187 190 195 194
330 329 327 327 326 328 329 325 322 317 312 311 299 295 291 284 275 257 253 252 254 275 268 264 261 251 260 209 188 186 187 185 193 197 186 187 190 189 187 189 189 192 191
330 329 327 328 330 330 330 328 322 319 315 313 304 297 291 284 275 265 254 251 254 256 268 267 262 253 257 296 196 189 187 182 189 194 186 190 195 192 188 185 189 192 190
330 329 330 331 332 333 331 329 325 323 318 312 304 301 294 285 274 263 258 252 252 252 267 270 265 252 254 267 191 189 183 186 187 187 183 183 186 185 182 188 190 194 194
330 332 333 334 335 333 333 330 326 327 321 313 308 304 299 291 282 265 263 262 251 249 252 266 260 243 240 264 202 199 200 193 189 189 189 187 189 192 185 188 192 193 188
332 334 336 338 336 335 335 332 331 331 323 317 312 307 301 297 292 276 266 260 253 247 250 254 263 251 244 281 204 207 210 212 211 203 195 192 190 190 190 191 194 193 187
334 337 339 338 337 336 337 334 338 333 325 317 315 314 306 297 292 276 263 256 258 248 245 249 257 263 243 242 204 205 200 205 209 212 212 201 206 194 191 194 195 194 195
337 339 341 341 339 339 341 340 340 329 326 319 316 315 311 304 292 280 258 244 249 252 245 249 251 257 236 234 216 189 199 204 210 212 214 209 204 201 194 194 194 193 189
339 341 344 342 342 344 346 342 340 332 325 319 315 322 320 313 298 280 261 248 249 254 243 241 247 249 250 220 213 199 195 196 201 193 205 205 204 201 205 201 200 198 191
340 343 344 346 348 350 346 347 341 333 328 328 322 317 325 326 323 282 257 246 249 251 251 238 247 245 251 219 207 201 206 200 200 200 203 200 202 202 204 208 209 209 206
343 344 347 352 355 353 351 351 343 340 333 331 331 326 321 322 329 317 273 240 240 246 241 244 245 244 240 218 212 202 201 204 202 198 198 198 199 203 204 211 210 210 209
345 347 352 357 359 360 358 353 343 343 336 336 331 326 324 326 319 334 300 268 245 244 245 248 250 246 237 229 219 203 202 206 198 196 200 204 203 201 202 203 204 214 214
347 351 356 359 2 4 5 0 346 343 343 336 334 331 331 323 318 325 321 304 285 245 246 251 253 248 229 233 212 199 201 202 204 202 203 203 200 200 197 200 200 207 210
352 356 359 3 5 7 8 8 353 348 345 338 337 337 329 321 317 317 311 300 285 274 267 266 251 240 237 230 200 194 202 206 202 207 200 199 200 200 202 202 207 208 212
355 359 4 5 8 10 10 11 20 4 358 354 347 346 333 323 321 318 313 294 264 249 249 254 244 238 227 209 194 192 193 198 201 202 201 204 204 204 204 206 207 209 211
359 3 7 8 11 13 15 16 12 21 25 17 5 0 355 347 339 335 316 300 280 235 246 244 236 224 210 198 197 193 195 200 204 201 200 205 208 207 206 205 206 210 211
4 6 10 11 13 17 18 20 21 20 17 19 27 9 9 9 8 6 359 258 209 220 223 222 219 214 206 200 197 195 196 197 202 200 201 205 207 207 202 207 207 210 212
7 9 12 14 16 19 21 23 26 27 26 25 24 24 31 33 30 42 61 64 64 74 81 109 172 185 190 195 206 204 207 206 205 201 203 206 206 206 204 208 214 214 215
9 10 12 15 18 20 23 25 26 29 31 30 29 19 27 38 42 46 49 51 54 58 59 59 67 141 178 188 192 203 204 206 210 208 208 211 214 213 208 210 215 214 214
11 11 14 17 21 23 24 27 27 28 30 34 34 30 32 40 42 44 46 47 48 52 53 51 58 66 131 176 190 194 204 213 216 217 213 210 213 214 214 218 224 223 223
12 13 15 19 22 25 28 28 29 29 29 30 35 38 40 42 43 44 47 48 50 52 52 51 56 60 62 87 159 187 195 199 204 211 213 216 217 218 218 217 217 221 222
16 16 18 21 22 25 27 29 30 30 30 29 31 34 38 41 42 43 45 48 51 53 54 53 53 57 62 63 73 116 167 190 202 208 211 213 214 214 212 211 215 216 215
17 19 21 20 21 24 26 27 30 31 31 32 31 33 35 37 40 43 43 46 49 50 53 54 52 52 56 59 59 67 78 108 175 201 210 214 213 213 213 214 217 220 223
17 21 22 20 19 22 24 26 27 28 30 30 32 34 36 37 38 40 43 44 46 47 50 53 54 51 53 56 59 59 63 73 89 122 167 193 203 207 210 212 215 219 221
22 19 22 22 20 21 23 24 24 25 26 28 30 32 33 38 41 40 40 43 44 47 47 48 52 52 50 52 55 59 59 61 65 77 98 121 142 155 171 187 198 205 207